[[{"header":{"parameterUnit":"m.s-1","parameterCategory":1,"la1":30.2991,"la2":30.254,"lo1":-89.0895,"lo2":-89.0444,"dy":0.0017,"dx":0.0017,"nx":28,"ny":28,"refTime":"2023-08-09T03:00:00:Z","depth":0,"parameterNumber":2,"parameterNumberName":"U-component_of_WINDS"},"data":[0,0,0,0,0,0,0,0,0,0,0,0,0,0,0,0,0,0,0,0,0,0,0,0,0,0,0,0,0,0,0,0,0,0,0,0,0,0,0,0,0,0,0,0,0,0,0,0,0,0,0,0,0,0,0,0,0,0,3.833,3.8331,0,3.845,3.8451,3.8453,3.8317,3.8311,3.8306,3.8301,3.8434,3.8442,3.845,0,0,0,0,0,0,0,0,0,0,0,0,0,3.7992,3.7999,3.833,3.8331,3.8333,3.845,3.8451,3.8453,3.8318,3.8311,3.8305,3.8299,3.8431,3.8441,3.8451,0,0,0,0,0,0,0,0,0,0,0,0,0,3.8128,3.8001,3.833,3.8279,3.8276,3.8449,3.8451,3.8453,3.8319,3.8311,3.8303,3.8296,3.8428,3.844,3.8452,3.8684,0,0,3.849,3.8496,0,0,0,0,0,0,0,0,3.8121,3.8141,3.8285,3.8283,3.8279,3.836,3.838,3.8531,3.8321,3.8303,3.8301,3.8292,3.8416,3.8429,3.8469,3.869,3.8696,3.8491,3.8499,3.8504,3.8508,0,0,0,0,0,0,0,3.8112,3.8135,3.8377,3.8287,3.8284,3.8253,3.8264,3.8408,3.8402,3.8304,3.8294,3.831,3.8413,3.8457,3.8471,3.8698,3.8491,3.8502,3.851,3.8515,3.9117,3.9125,0,0,0,0,0,0,3.8107,3.8128,3.8374,3.8381,3.8179,3.8266,3.8278,3.8342,3.84,3.8401,3.8316,3.8303,3.844,3.8457,3.8475,3.8751,3.8504,3.8516,3.8523,3.9109,3.9119,3.9128,0,0,0,0,0,0,3.81,3.813,3.8369,3.8252,3.828,3.828,3.8353,3.8349,3.8392,3.8409,3.8408,3.8362,3.8434,3.8458,3.8633,3.8754,3.8522,3.8533,3.9099,3.9112,3.9124,3.9305,0,0,0,0,0,0,3.8091,3.8128,3.8214,3.8255,3.8287,3.8522,3.8361,3.8357,3.8413,3.8397,3.8451,3.8453,3.843,3.8615,3.8645,3.8767,3.8543,3.9088,3.9104,3.9119,3.9288,3.9322,3.9351,0,0,0,0,0,3.8079,3.8262,3.8219,3.825,3.8394,3.8529,3.8548,3.8515,3.8423,3.8511,3.8522,3.8451,3.8735,3.8634,3.8667,3.8794,3.908,3.91,3.9118,3.9274,3.9316,3.9351,0,0,0,0,0,0,3.8239,3.8267,3.8219,3.842,3.8473,3.8506,3.8616,3.856,3.8642,3.8624,3.8582,3.8596,3.8782,3.8805,3.8692,3.9022,3.8893,3.892,3.9,3.904,3.9071,3.9062,3.8553,0,0,0,0,0,3.8297,3.8402,3.8422,3.8598,3.8626,3.8617,3.8675,3.8644,3.8699,3.8721,3.8745,3.8803,3.8905,3.8974,3.9068,3.929,3.9302,3.9394,3.9426,3.9452,3.9476,3.9597,3.9639,3.9191,3.9191,3.919,0,0,3.842,3.8447,3.8517,3.863,3.8668,3.878,3.8637,3.8762,3.8846,3.8741,3.8907,3.8927,3.8989,3.9189,3.9278,3.9215,3.9602,3.9476,3.9497,3.9507,3.9621,3.9663,3.9701,3.9204,3.9202,3.92,0,0,3.87,3.8731,3.8881,3.8921,3.8978,3.897,3.9007,3.9048,3.9057,3.9222,3.9146,3.9247,3.9423,3.9471,3.9518,3.9817,3.9756,3.985,4.0016,4.0134,4.0169,4.02,4.0308,4.0347,3.9873,3.9874,3.9874,0,3.8845,3.9009,3.8966,3.9096,3.9149,3.9057,3.921,3.9252,3.9339,3.9379,3.9305,3.9525,3.956,3.9771,3.9843,3.9884,3.9927,3.9844,4.0167,4.0198,4.0226,4.0329,4.0369,3.9885,3.9883,3.9882,3.9881,0,3.9186,3.9301,3.9415,3.9498,3.9564,3.9706,3.9687,3.976,3.9724,3.9725,3.9896,3.9935,4.0037,4.0084,4.0052,4.0291,4.0249,4.0172,4.0042,4.0281,4.0376,4.0415,3.9901,3.9897,3.9893,3.9891,0,0,3.9571,3.9627,3.9671,3.9707,3.9764,3.9854,3.9992,4.0088,4.0152,4.0216,4.0332,4.0483,4.0412,4.0466,4.0438,4.0542,4.0778,4.0452,4.0453,4.0512,4.1046,4.1104,4.115,4.0737,4.0744,4.075,4.1041,0,3.9853,4.0088,4.0054,4.0283,4.039,4.0304,4.0425,4.0474,4.048,4.0573,4.058,4.0688,4.0585,4.0617,4.0715,4.0728,4.0885,4.0706,4.0848,4.0853,4.0836,4.12,4.1263,4.1535,4.1078,4.1084,4.1089,0,4.0213,4.0286,4.0525,4.0565,4.0609,4.0718,4.0804,4.0893,4.0949,4.0945,4.1006,4.0959,4.1101,4.0967,4.1162,4.1042,4.1098,4.1113,4.1123,4.1136,4.0987,4.1225,4.1621,4.1663,4.1147,4.1143,4.1138,0,4.0472,4.0631,4.0794,4.0828,4.0879,4.0958,4.0983,4.103,4.1091,4.1167,4.1206,4.1299,4.1351,4.1425,4.1406,4.131,4.1608,4.1471,4.1611,4.1612,4.1679,4.1675,4.2092,4.1713,4.1713,4.1712,4.1711,0,4.0791,4.0941,4.0911,4.1012,4.1178,4.1138,4.1305,4.132,4.1363,4.1467,4.1399,4.15,4.1467,4.1567,4.1553,4.1719,4.1742,4.1746,4.1741,4.1753,4.1753,4.179,4.1771,4.1723,4.172,4.1718,4.1716,0,4.1108,4.1094,4.1266,4.13,4.1312,4.1433,4.1463,4.1559,4.1558,4.1692,4.1721,4.1721,4.1835,4.1822,4.1951,4.1941,4.2147,4.2118,4.2127,4.2122,4.2262,4.225,4.2719,4.2779,4.236,4.2364,4.2368,0,4.1313,4.1426,4.1471,4.1534,4.1564,4.1668,4.1729,4.1695,4.1761,4.1833,4.1921,4.2028,4.2111,4.2298,4.2311,4.2409,4.2384,4.2541,4.2398,4.2407,4.2388,4.2382,4.2394,4.257,4.2575,4.2579,4.2582,0,4.1679,4.1666,4.1754,4.1841,4.1915,4.1982,4.2043,4.21,4.2072,4.2151,4.2264,4.2329,4.2458,4.2566,4.2659,4.2688,4.2633,4.2626,4.2664,4.2678,4.2679,4.2682,4.2206,4.2616,4.2613,4.261,4.2608,4.2607,4.1948,4.2044,4.2091,4.2192,4.2233,4.2292,4.2384,4.2394,4.2487,4.2587,4.2562,4.2691,4.2745,4.2863,4.2902,4.3005,4.2948,4.3002,4.3016,4.3031,4.3048,4.2662,4.3021,4.302,4.302,4.3019,4.3018,0,4.2311,4.2336,4.2429,4.2515,4.2596,4.2532,4.2596,4.2669,4.2782,4.2835,4.2918,4.305,4.3154,4.3176,4.3276,4.3354,4.3332,4.3382,4.3377,4.3385,4.3092,4.305,4.3399,4.3399,4.3399,4.3399,4.3399,4.3399,4.251,4.267,4.2663,4.2844,4.2869,4.2993,4.3035,4.309,4.3132,4.3281,4.3366,4.3378,4.342,4.3522,4.3616,4.362,4.3661,4.3723,4.3717,4.3443,4.3405,4.3369,4.3329,4.3731,4.3732,4.4001,4.4004,4.4006]},{"header":{"parameterUnit":"m.s-1","parameterCategory":1,"la1":30.2991,"la2":30.254,"lo1":-89.0895,"lo2":-89.0444,"dy":0.0017,"dx":0.0017,"nx":28,"ny":28,"refTime":"2023-08-09T03:00:00:Z","depth":0,"parameterNumber":3,"parameterNumberName":"V-component_of_WINDS"},"data":[0,0,0,0,0,0,0,0,0,0,0,0,0,0,0,0,0,0,0,0,0,0,0,0,0,0,0,0,0,0,0,0,0,0,0,0,0,0,0,0,0,0,0,0,0,0,0,0,0,0,0,0,0,0,0,0,0,0,4.7284,4.7286,0,4.7456,4.7458,4.746,4.7411,4.7407,4.7404,4.7401,4.7579,4.7587,4.7595,0,0,0,0,0,0,0,0,0,0,0,0,0,4.6915,4.6922,4.7284,4.7286,4.7288,4.7456,4.7458,4.746,4.7412,4.7407,4.7403,4.7399,4.7577,4.7586,4.7596,0,0,0,0,0,0,0,0,0,0,0,0,0,4.708,4.6925,4.7284,4.7284,4.7286,4.7455,4.7458,4.7461,4.7412,4.7407,4.7402,4.7397,4.7574,4.7585,4.7597,4.7778,0,0,4.7634,4.7639,0,0,0,0,0,0,0,0,4.7071,4.7094,4.7282,4.7284,4.7286,4.7407,4.7394,4.7567,4.7414,4.7364,4.74,4.7394,4.7526,4.7542,4.7586,4.7786,4.7794,4.7635,4.7643,4.7648,4.7651,0,0,0,0,0,0,0,4.706,4.7086,4.7352,4.7285,4.7288,4.7276,4.7294,4.7426,4.7473,4.7368,4.7365,4.7386,4.7527,4.7574,4.759,4.7796,4.7635,4.7646,4.7653,4.7658,4.8153,4.8159,0,0,0,0,0,0,4.7046,4.7077,4.7347,4.7357,4.7163,4.7287,4.7307,4.7373,4.7471,4.7481,4.739,4.7383,4.7556,4.7576,4.7596,4.7814,4.7648,4.7659,4.7666,4.8147,4.8154,4.8161,0,0,0,0,0,0,4.7038,4.7071,4.734,4.7216,4.725,4.7299,4.7374,4.738,4.7427,4.7488,4.7496,4.7431,4.7553,4.7579,4.7733,4.7819,4.7664,4.7675,4.814,4.815,4.8158,4.825,0,0,0,0,0,0,4.7028,4.7068,4.7137,4.7218,4.7256,4.7473,4.738,4.7387,4.7448,4.744,4.7528,4.7537,4.7551,4.7715,4.7745,4.7833,4.7685,4.8133,4.8144,4.8155,4.824,4.8261,4.828,0,0,0,0,0,4.7015,4.7157,4.714,4.7173,4.7343,4.7478,4.75,4.7512,4.7455,4.7525,4.7564,4.7535,4.7805,4.7731,4.7764,4.7857,4.8127,4.8141,4.8154,4.8231,4.8257,4.8279,0,0,0,0,0,0,4.7085,4.7167,4.715,4.7322,4.7393,4.747,4.7558,4.7539,4.7629,4.7618,4.7629,4.765,4.7807,4.7848,4.7764,4.8037,4.7958,4.7978,4.8005,4.803,4.805,4.8037,4.7695,0,0,0,0,0,4.712,4.7222,4.7289,4.7434,4.7471,4.7508,4.7568,4.757,4.7645,4.7675,4.7725,4.78,4.7901,4.7968,4.8065,4.8245,4.8264,4.8326,4.8346,4.8362,4.8379,4.8478,4.8506,4.8205,4.8204,4.8204,0,0,4.7194,4.7252,4.7316,4.745,4.7505,4.7611,4.7534,4.765,4.7729,4.7693,4.7841,4.7881,4.7964,4.8132,4.8209,4.8171,4.8467,4.8379,4.8391,4.84,4.8495,4.8523,4.8549,4.8214,4.8212,4.8211,0,0,4.7383,4.7437,4.7564,4.7621,4.7706,4.773,4.776,4.784,4.7864,4.8013,4.7988,4.8083,4.8257,4.8318,4.8372,4.8584,4.8561,4.8615,4.872,4.8816,4.8839,4.886,4.8936,4.8963,4.8633,4.8633,4.8633,0,4.7465,4.7623,4.7632,4.7749,4.7809,4.7781,4.791,4.7965,4.8078,4.812,4.8076,4.8294,4.8349,4.853,4.8582,4.8626,4.8662,4.8605,4.8835,4.8856,4.8876,4.8949,4.8977,4.8639,4.8638,4.8638,4.8637,0,4.7719,4.7829,4.7922,4.803,4.81,4.8223,4.8251,4.8321,4.8318,4.8347,4.8499,4.8563,4.8672,4.8716,4.8714,4.8898,4.8872,4.8831,4.8752,4.8911,4.8979,4.9007,4.8648,4.8645,4.8644,4.8642,0,0,4.7957,4.8068,4.8102,4.8151,4.8242,4.8328,4.845,4.8556,4.8616,4.8695,4.8798,4.8946,4.8909,4.897,4.8975,4.9059,4.9224,4.9009,4.9011,4.9047,4.943,4.946,4.9492,4.9208,4.9214,4.9218,4.9423,0,4.8154,4.8367,4.8379,4.8573,4.8675,4.8649,4.8755,4.8824,4.8854,4.8946,4.8979,4.9084,4.9028,4.9064,4.9147,4.9186,4.9301,4.9171,4.9305,4.931,4.9285,4.9528,4.956,4.975,4.945,4.9454,4.9458,0,4.8412,4.8498,4.8702,4.8779,4.8822,4.8917,4.9015,4.9103,4.918,4.9196,4.9264,4.9257,4.9383,4.9299,4.9472,4.9384,4.944,4.9467,4.9475,4.9488,4.9393,4.9547,4.9811,4.9839,4.95,4.9496,4.9493,0,4.8565,4.8732,4.8875,4.8918,4.9011,4.9079,4.9121,4.9192,4.9255,4.9342,4.9383,4.9483,4.9538,4.9616,4.9636,4.9573,4.981,4.9727,4.9827,4.9827,4.9878,4.9875,5.0154,4.9914,4.9913,4.9913,4.9912,0,4.8784,4.891,4.8945,4.9034,4.9174,4.9186,4.9325,4.9363,4.9427,4.9523,4.9507,4.9598,4.9619,4.9714,4.9731,4.9872,4.9897,4.9914,4.9917,4.9916,4.9914,4.9953,4.994,4.992,4.9919,4.9917,4.9916,0,4.8979,4.9007,4.9162,4.9238,4.926,4.936,4.9425,4.951,4.9538,4.966,4.9689,4.9734,4.9845,4.9873,5.0005,5.0017,5.0184,5.0174,5.0157,5.0157,5.0255,5.0246,5.057,5.0613,5.0344,5.0347,5.0349,0,4.9116,4.9212,4.9298,4.9361,4.9406,4.9507,4.9571,4.9587,4.9654,4.9749,4.9823,4.9932,5.002,5.0198,5.0243,5.0345,5.0338,5.0444,5.0353,5.0348,5.034,5.0334,5.0344,5.0462,5.0465,5.0467,5.0469,0,4.9358,4.9367,4.9459,4.9558,4.9634,4.9712,4.9787,4.9839,4.9866,4.9943,5.0055,5.0123,5.0258,5.0367,5.0469,5.0513,5.0497,5.0497,5.0526,5.0525,5.0512,5.052,5.0205,5.049,5.0488,5.0486,5.0485,5.0484,4.9528,4.9612,4.9686,4.9789,4.9847,4.9917,5.0001,5.0039,5.0133,5.0244,5.0248,5.0371,5.0446,5.0581,5.0631,5.0728,5.0696,5.0737,5.0747,5.0758,5.0766,5.0496,5.0747,5.0746,5.0746,5.0745,5.0745,0,4.9769,4.9815,4.991,5.0014,5.0096,5.0072,5.0153,5.0224,5.0331,5.0402,5.0489,5.0619,5.0724,5.0777,5.0882,5.0949,5.0944,5.0976,5.0971,5.0982,5.0789,5.0754,5.0978,5.0978,5.0978,5.0978,5.0978,5.0978,4.9903,5.0045,5.0063,5.0233,5.0278,5.0397,5.0446,5.0511,5.0567,5.0713,5.08,5.0833,5.0898,5.1007,5.1102,5.1115,5.1155,5.1191,5.12,5.1019,5.0995,5.0973,5.094,5.1199,5.12,5.1385,5.1387,5.1388]}]]